Regional Weather Roundup
Issued by NWS Bismarck, ND

Home | Current Version | Previous Version | Text Only | Print | Product List | Glossary On
Versions: 1 2 3 4 5 6 7 8 9 10 11 12 13 14 15 16 17 18 19 20 21 22 23 24 25 26 27 28 29 30 31 32 33 34 35 36 37 38 39 40 41 42 43 44 45 46 47 48 49 50
000
ASUS43 KBIS 200420
RWRBIS

NWR BROADCAST TEXT
NATIONAL WEATHER SERVICE BISMARCK ND
1100 PM CDT SAT APR 19 2014

NOTE: "FAIR" INDICATES FEW OR NO CLOUDS BELOW 12,000 FEET WITH NO
SIGNIFICANT WEATHER AND/OR OBSTRUCTIONS TO VISIBILITY.


CITY           SKY/WX    TMP DP  RH WIND       PRES   REMARKS
WILLISTON      CLEAR     37  30  75 CALM      29.92R
MINOT          CLEAR     39  32  76 SE6       29.96R
MINOT AFB      CLEAR     35  34  95 S5        29.95S
BISMARCK       CLEAR     44  32  62 NE7       29.99R
DICKINSON      CLEAR     38  25  59 S7        29.94S
GARRISON         N/A     40  31  70 NE5       29.96R
HETTINGER ARPT CLEAR     36  24  62 CALM      29.98S
JAMESTOWN      CLEAR     39  35  86 E5        29.99S
CARRINGTON     FAIR      41  39  93 NE3       30.01S
CROSBY         FAIR      32  32 100 SE5       29.93S
HARVEY         FAIR      37  36  93 SE3       29.99S
HAZEN          FAIR      36  32  87 SW3       29.97S
LINTON         FAIR      45  36  70 E9        29.99S
MANDAN         FAIR      46  32  57 E8        29.99R
OAKES          FAIR      41  36  81 N8        30.01R
RUGBY          FAIR      32  32 100 SE3       29.98S
STANLEY        FAIR      36  32  87 CALM      29.95R
TIOGA          FAIR      32  32 100 E7        29.96S
WATFORD CITY   FAIR      36  30  80 CALM      29.92S
$$

CITY           SKY/WX    TMP DP  RH WIND       PRES   REMARKS
GRAND FORKS    CLEAR     40  34  79 W5        30.00R
GRAND FORKS AF CLEAR     39  33  78 NW5       30.01R
DEVILS LAKE    CLEAR     36  27  69 CALM      30.00R
FARGO          CLEAR     47  36  65 N10       30.00R
CANDO          FAIR      32  28  86 CALM      30.00R
CAVALIER       FAIR      39  32  75 W7        29.99R
GRAFTON        FAIR      39  32  75 W8        30.00R
GWINNER        CLEAR     45  34  65 N12       30.01R
LANGDON        FAIR      32  28  86 W9        29.98S
ROLLA          FAIR      32  32 100 CALM      29.98R
WALHALLA       FAIR      39  32  75 CALM      29.99R
$$

CITY           SKY/WX    TMP DP  RH WIND       PRES   REMARKS
ABERDEEN       PTCLDY    40  25  55 SW6       29.99S
MOBRIDGE       CLEAR     43  28  55 CALM      29.97R
BUFFALO          N/A     49  26  41 SE8       29.91S
RAPID CITY     PTCLDY    45  30  55 CALM      30.00S
GLASGOW        CLEAR     41  28  60 E12       29.86R
SIDNEY         CLEAR     37  30  75 CALM      29.93S
WOLF POINT     PTCLDY    39  27  62 NE6       29.88S
GLENDIVE       CLEAR     46  21  36 S6        29.93S
MILES CITY     PTCLDY    49  25  39 S10       29.90S
BAKER          CLEAR     38  25  59 SE5       29.96R
$$

CITY           SKY/WX    TMP DP  RH WIND       PRES   REMARKS
BILLINGS       PTCLDY    56  26  31 SE7       29.87S
GREAT FALLS    PTCLDY    47  21  35 E3        29.81R
REGINA         PTCLDY    34  32  93 CALM      29.93R
ESTEVAN        CLEAR     34  34 100 E6        29.94R
$$




USA.gov is the U.S. government's official web portal to all federal, state and local government web resources and services.